Weather Roundup
Issued by NWS Springfield, MO

Home | Current Version | Previous Version | Text Only | Print | Product List | Glossary On
Versions: 1 2 3 4 5 6 7 8 9 10 11 12 13 14 15 16 17 18 19 20 21 22 23 24 25 26 27 28 29 30 31 32 33 34 35 36 37 38 39 40 41 42 43 44 45 46 47 48 49 50
000
NZUS99 KSGF 030559
HRRSGF

HOURLY WEATHER
NATIONAL WEATHER SERVICE SPRINGFIELD MO
100 AM CDT FRI JUL 03 2015

......SGF CWA......

CITY           SKY/WX    TMP DP  RH WIND       PRES   REMARKS
SPRINGFIELD    CLOUDY    73  70  90 NE5       29.92F
6HR MIN TEMP:  72; 6HR MAX TEMP:  78; 6HR PCP: TRACE;

JOPLIN         CLOUDY    71  70  96 N3        29.92F FOG
6HR MIN TEMP:  71; 6HR MAX TEMP:  78; 6HR PCP: TRACE;

WEST PLAINS    LGT RAIN  70  67  90 W6        29.92F
6HR MIN TEMP:  70; 6HR MAX TEMP:  80; 6HR PCP:  0.03;

ROLLA          CLOUDY    68  66  93 NE6       29.92S
6HR MIN TEMP:  68; 6HR MAX TEMP:  72;

OSAGE BEACH    CLOUDY    70  66  88 NE5       29.93F

......SURROUNDING SGF CWA......

CITY           SKY/WX    TMP DP  RH WIND       PRES   REMARKS
CHANUTE        MOCLDY    70  69  97 S6        29.91F FOG
PARSONS        CLEAR     72  71  97 MISG      29.93F
COFFEYVILLE    CLEAR     69  67  93 CALM      29.91R
EMPORIA        PTCLDY    69  67  93 S6        29.91F
SILOAM SPRINGS MOCLDY    68  63  83 SE3         N/A
HARRISON AR    CLOUDY    71  67  87 CALM      29.94F
NEAR YELLVILLE MOCLDY    72  66  83 CALM      29.90S

......KANSAS AND MISSOURI......

CITY           SKY/WX    TMP DP  RH WIND       PRES   REMARKS
KANSAS CTY INT CLOUDY    67  66  97 E8        29.95R
DOWNTOWN KC    CLOUDY    71  65  81 E7        29.94R
COLUMBIA       LGT RAIN  67  62  84 E8        29.95F
SEDALIA        CLOUDY    69  61  75 NE6       29.96S
ST JOSEPH      CLOUDY    66  60  81 NE6       29.95S
ST LOUIS       CLOUDY    70  62  76 N3        29.92F
SPIRIT OF STL  MOCLDY    69  62  78 CALM      29.91F
KIRKSVILLE     CLOUDY    63  60  90 N3        29.98S
WICHITA        PTCLDY    69  66  90 SW3       29.93F
TOPEKA         LGT RAIN  70  67  90 E9        29.93S FOG
OLATHE         CLOUDY    68  67  96 E3        29.94S FOG

......TENNESSEE......

CITY           SKY/WX    TMP DP  RH WIND       PRES   REMARKS
MEMPHIS        CLOUDY    73  68  84 CALM      29.90F
NASHVILLE      CLOUDY    74  73  97 SW6       29.89F

......ARKANSAS.......

CITY           SKY/WX    TMP DP  RH WIND       PRES   REMARKS
FAYETTEVILLE   CLOUDY    69  68  96 SW5       29.94F
FT SMITH       CLOUDY    75  71  87 SW6       29.91F
LITTLE ROCK    LGT RAIN  79  72  79 W9        29.93S

......OKLAHOMA.......

CITY           SKY/WX    TMP DP  RH WIND       PRES   REMARKS
TULSA          CLOUDY    74  72  93 S3        29.93R
PONCA CITY     CLEAR     73  68  84 CALM      29.92F
MCALESTER      LGT RAIN  74  72  93 E6        29.94F
OKLAHOMA CITY  CLOUDY    72  71  97 S7        29.91F

......IOWA............

CITY           SKY/WX    TMP DP  RH WIND       PRES   REMARKS
DES MOINES     CLOUDY    63  56  78 NE3       29.99S
QUAD CITIES    CLOUDY    63  58  83 SE3       29.98R

......ILLINOIS........

CITY           SKY/WX    TMP DP  RH WIND       PRES   REMARKS
QUINCY         CLOUDY    64  60  87 N6        29.96R
CHICAGO        CLOUDY    57  48  72 N3        30.00S




USA.gov is the U.S. government's official web portal to all federal, state and local government web resources and services.